Time,TemperatureF,DewpointF,PressureIn,WindDirection,WindDirectionDegrees,WindSpeedMPH,WindSpeedGustMPH,Humidity,HourlyPrecipIn,Conditions,Clouds,dailyrainin,SoftwareType,DateUTC
2013-03-03 00:00:00,38.0,-99.9,0.00,SW,221,13.0,14.0,-999,0.00,,,-99.99,,2013-03-03 06:00:00,
2013-03-03 00:09:00,39.0,-99.9,0.00,SW,219,13.0,15.0,-999,0.00,,,-99.99,,2013-03-03 06:09:00,
2013-03-03 00:14:00,39.0,-99.9,0.00,SW,223,13.0,15.0,-999,0.00,,,-99.99,,2013-03-03 06:14:00,
2013-03-03 00:19:00,39.0,-99.9,0.00,SW,228,13.0,15.0,-999,0.00,,,-99.99,,2013-03-03 06:19:00,
2013-03-03 00:24:00,39.0,-99.9,0.00,SW,224,13.0,15.0,-999,0.00,,,-99.99,,2013-03-03 06:24:00,
2013-03-03 00:29:00,39.0,-99.9,0.00,SSW,213,13.0,15.0,-999,0.00,,,-99.99,,2013-03-03 06:29:00,
2013-03-03 00:34:00,39.0,-99.9,0.00,SW,228,13.0,14.0,-999,0.00,,,-99.99,,2013-03-03 06:34:00,
2013-03-03 00:39:00,39.0,-99.9,0.00,SW,224,13.0,14.0,-999,0.00,,,-99.99,,2013-03-03 06:39:00,
2013-03-03 00:44:00,39.0,-99.9,0.00,SW,230,13.0,14.0,-999,0.00,,,-99.99,,2013-03-03 06:44:00,
2013-03-03 00:49:00,39.0,-99.9,0.00,SW,219,13.0,15.0,-999,0.00,,,-99.99,,2013-03-03 06:49:00,
2013-03-03 00:54:00,40.0,-99.9,0.00,SW,223,12.0,14.0,-999,0.00,,,-99.99,,2013-03-03 06:54:00,
2013-03-03 00:59:00,40.0,-99.9,0.00,SW,224,12.0,14.0,-999,0.00,,,-99.99,,2013-03-03 06:59:00,
2013-03-03 01:04:00,40.0,-99.9,0.00,SW,216,12.0,14.0,-999,0.00,,,-99.99,,2013-03-03 07:04:00,
2013-03-03 01:09:00,40.0,-99.9,0.00,SW,221,11.0,13.0,-999,0.00,,,-99.99,,2013-03-03 07:09:00,
2013-03-03 01:14:00,39.0,-99.9,0.00,SW,224,12.0,13.0,-999,0.00,,,-99.99,,2013-03-03 07:14:00,
2013-03-03 01:19:00,40.0,-99.9,0.00,SW,227,12.0,13.0,-999,0.00,,,-99.99,,2013-03-03 07:19:00,
2013-03-03 01:24:00,40.0,-99.9,0.00,SW,224,12.0,13.0,-999,0.00,,,-99.99,,2013-03-03 07:24:00,
2013-03-03 01:29:00,40.0,-99.9,0.00,SW,228,12.0,13.0,-999,0.00,,,-99.99,,2013-03-03 07:29:00,
2013-03-03 01:34:00,40.0,-99.9,0.00,SW,216,12.0,14.0,-999,0.00,,,-99.99,,2013-03-03 07:34:00,
2013-03-03 01:39:00,41.0,-99.9,0.00,SW,220,12.0,13.0,-999,0.00,,,-99.99,,2013-03-03 07:39:00,
2013-03-03 01:44:00,40.0,-99.9,0.00,SW,223,12.0,13.0,-999,0.00,,,-99.99,,2013-03-03 07:44:00,
2013-03-03 01:49:00,40.0,-99.9,0.00,SW,217,12.0,13.0,-999,0.00,,,-99.99,,2013-03-03 07:49:00,
2013-03-03 01:54:00,40.0,-99.9,0.00,SW,226,12.0,13.0,-999,0.00,,,-99.99,,2013-03-03 07:54:00,
2013-03-03 01:59:00,40.0,-99.9,0.00,SW,221,11.0,12.0,-999,0.00,,,-99.99,,2013-03-03 07:59:00,
2013-03-03 02:04:00,40.0,-99.9,0.00,SW,227,12.0,13.0,-999,0.00,,,-99.99,,2013-03-03 08:04:00,
2013-03-03 02:09:00,40.0,-99.9,0.00,SW,226,11.0,12.0,-999,0.00,,,-99.99,,2013-03-03 08:09:00,
2013-03-03 02:14:00,39.0,-99.9,0.00,SW,220,11.0,12.0,-999,0.00,,,-99.99,,2013-03-03 08:14:00,
2013-03-03 02:19:00,39.0,-99.9,0.00,SW,234,11.0,12.0,-999,0.00,,,-99.99,,2013-03-03 08:19:00,
2013-03-03 02:24:00,39.0,-99.9,0.00,WSW,243,11.0,12.0,-999,0.00,,,-99.99,,2013-03-03 08:24:00,
2013-03-03 02:29:00,39.0,-99.9,0.00,WSW,241,11.0,12.0,-999,0.00,,,-99.99,,2013-03-03 08:29:00,
2013-03-03 02:34:00,40.0,-99.9,0.00,WSW,252,10.0,11.0,-999,0.00,,,-99.99,,2013-03-03 08:34:00,
2013-03-03 02:39:00,40.0,-99.9,0.00,WSW,250,9.0,10.0,-999,0.00,,,-99.99,,2013-03-03 08:39:00,
2013-03-03 02:44:00,40.0,-99.9,0.00,WSW,244,11.0,12.0,-999,0.00,,,-99.99,,2013-03-03 08:44:00,
2013-03-03 02:49:00,39.0,-99.9,0.00,WSW,248,11.0,12.0,-999,0.00,,,-99.99,,2013-03-03 08:49:00,
2013-03-03 02:54:00,39.0,-99.9,0.00,West,261,10.0,12.0,-999,0.00,,,-99.99,,2013-03-03 08:54:00,
2013-03-03 02:59:00,40.0,-99.9,0.00,WSW,251,9.0,13.0,-999,0.00,,,-99.99,,2013-03-03 08:59:00,
2013-03-03 03:04:00,40.0,-99.9,0.00,WSW,238,8.0,10.0,-999,0.00,,,-99.99,,2013-03-03 09:04:00,
2013-03-03 03:09:00,39.0,-99.9,0.00,WSW,247,9.0,11.0,-999,0.00,,,-99.99,,2013-03-03 09:09:00,
2013-03-03 03:14:00,40.0,-99.9,0.00,WSW,250,10.0,12.0,-999,0.00,,,-99.99,,2013-03-03 09:14:00,
2013-03-03 03:19:00,40.0,-99.9,0.00,WSW,252,10.0,12.0,-999,0.00,,,-99.99,,2013-03-03 09:19:00,
2013-03-03 03:29:00,40.0,-99.9,0.00,WSW,251,9.0,12.0,-999,0.00,,,-99.99,,2013-03-03 09:29:00,
2013-03-03 03:39:00,38.0,-99.9,0.00,West,261,10.0,12.0,-999,0.00,,,-99.99,,2013-03-03 09:39:00,
2013-03-03 03:44:00,39.0,-99.9,0.00,WSW,252,11.0,12.0,-999,0.00,,,-99.99,,2013-03-03 09:44:00,
2013-03-03 03:49:00,40.0,-99.9,0.00,West,269,11.0,13.0,-999,0.00,,,-99.99,,2013-03-03 09:49:00,
2013-03-03 03:54:00,42.0,-99.9,0.00,WSW,254,11.0,13.0,-999,0.00,,,-99.99,,2013-03-03 09:54:00,
2013-03-03 03:59:00,40.0,-99.9,0.00,WSW,244,11.0,13.0,-999,0.00,,,-99.99,,2013-03-03 09:59:00,
2013-03-03 04:04:00,41.0,-99.9,0.00,WSW,244,12.0,14.0,-999,0.00,,,-99.99,,2013-03-03 10:04:00,
2013-03-03 04:10:00,42.0,-99.9,0.00,WSW,250,13.0,14.0,-999,0.00,,,-99.99,,2013-03-03 10:10:00,
2013-03-03 04:14:00,42.0,-99.9,0.00,WSW,257,12.0,13.0,-999,0.00,,,-99.99,,2013-03-03 10:14:00,
2013-03-03 04:24:00,43.0,-99.9,0.00,West,264,11.0,14.0,-999,0.00,,,-99.99,,2013-03-03 10:24:00,
2013-03-03 04:29:00,44.0,-99.9,0.00,West,259,11.0,13.0,-999,0.00,,,-99.99,,2013-03-03 10:29:00,
2013-03-03 04:34:00,43.0,-99.9,0.00,WSW,257,11.0,13.0,-999,0.00,,,-99.99,,2013-03-03 10:34:00,
2013-03-03 04:44:00,40.0,-99.9,0.00,WSW,240,10.0,11.0,-999,0.00,,,-99.99,,2013-03-03 10:44:00,
2013-03-03 04:49:00,40.0,-99.9,0.00,SW,235,10.0,11.0,-999,0.00,,,-99.99,,2013-03-03 10:49:00,
2013-03-03 04:59:00,38.0,-99.9,0.00,SW,233,10.0,11.0,-999,0.00,,,-99.99,,2013-03-03 10:59:00,
2013-03-03 05:04:00,38.0,-99.9,0.00,WSW,238,10.0,10.0,-999,0.00,,,-99.99,,2013-03-03 11:04:00,
2013-03-03 05:09:00,38.0,-99.9,0.00,WSW,241,9.0,10.0,-999,0.00,,,-99.99,,2013-03-03 11:09:00,
2013-03-03 05:14:00,38.0,-99.9,0.00,WSW,243,10.0,10.0,-999,0.00,,,-99.99,,2013-03-03 11:14:00,
2013-03-03 05:19:00,39.0,-99.9,0.00,WSW,244,10.0,10.0,-999,0.00,,,-99.99,,2013-03-03 11:19:00,
2013-03-03 05:24:00,39.0,-99.9,0.00,SW,235,9.0,10.0,-999,0.00,,,-99.99,,2013-03-03 11:24:00,
2013-03-03 05:29:00,38.0,-99.9,0.00,WSW,251,9.0,9.0,-999,0.00,,,-99.99,,2013-03-03 11:29:00,
2013-03-03 05:34:00,37.0,-99.9,0.00,SW,226,9.0,9.0,-999,0.00,,,-99.99,,2013-03-03 11:34:00,
2013-03-03 05:39:00,36.0,-99.9,0.00,SW,227,9.0,10.0,-999,0.00,,,-99.99,,2013-03-03 11:39:00,
2013-03-03 05:49:00,36.0,-99.9,0.00,SW,227,10.0,10.0,-999,0.00,,,-99.99,,2013-03-03 11:49:00,
2013-03-03 05:55:00,36.0,-99.9,0.00,SW,217,11.0,12.0,-999,0.00,,,-99.99,,2013-03-03 11:55:00,
2013-03-03 06:04:00,37.0,-99.9,0.00,SW,228,11.0,12.0,-999,0.00,,,-99.99,,2013-03-03 12:04:00,
2013-03-03 06:09:00,37.0,-99.9,0.00,SW,227,10.0,11.0,-999,0.00,,,-99.99,,2013-03-03 12:09:00,
2013-03-03 06:14:00,37.0,-99.9,0.00,SW,224,10.0,11.0,-999,0.00,,,-99.99,,2013-03-03 12:14:00,
2013-03-03 06:19:00,36.0,-99.9,0.00,SW,221,9.0,10.0,-999,0.00,,,-99.99,,2013-03-03 12:19:00,
2013-03-03 06:24:00,36.0,-99.9,0.00,SW,219,11.0,11.0,-999,0.00,,,-99.99,,2013-03-03 12:24:00,
2013-03-03 06:34:00,36.0,-99.9,0.00,WSW,237,10.0,11.0,-999,0.00,,,-99.99,,2013-03-03 12:34:00,
2013-03-03 06:39:00,36.0,-99.9,0.00,SW,234,10.0,11.0,-999,0.00,,,-99.99,,2013-03-03 12:39:00,
2013-03-03 06:44:00,35.0,-99.9,0.00,SW,228,11.0,12.0,-999,0.00,,,-99.99,,2013-03-03 12:44:00,
2013-03-03 06:49:00,35.0,-99.9,0.00,SW,228,11.0,12.0,-999,0.00,,,-99.99,,2013-03-03 12:49:00,
2013-03-03 06:54:00,35.0,-99.9,0.00,WSW,238,11.0,11.0,-999,0.00,,,-99.99,,2013-03-03 12:54:00,
2013-03-03 06:59:00,35.0,-99.9,0.00,WSW,241,11.0,12.0,-999,0.00,,,-99.99,,2013-03-03 12:59:00,
2013-03-03 07:04:00,35.0,-99.9,0.00,SW,228,10.0,11.0,-999,0.00,,,-99.99,,2013-03-03 13:04:00,
2013-03-03 07:09:00,36.0,-99.9,0.00,WSW,238,11.0,12.0,-999,0.00,,,-99.99,,2013-03-03 13:09:00,
2013-03-03 07:14:00,36.0,-99.9,0.00,SW,231,11.0,12.0,-999,0.00,,,-99.99,,2013-03-03 13:14:00,
2013-03-03 07:19:00,37.0,-99.9,0.00,SW,226,12.0,13.0,-999,0.00,,,-99.99,,2013-03-03 13:19:00,
2013-03-03 07:24:00,37.0,-99.9,0.00,SW,227,12.0,14.0,-999,0.00,,,-99.99,,2013-03-03 13:24:00,
2013-03-03 07:29:00,37.0,-99.9,0.00,SW,233,11.0,12.0,-999,0.00,,,-99.99,,2013-03-03 13:29:00,
2013-03-03 07:34:00,38.0,-99.9,0.00,WSW,237,11.0,12.0,-999,0.00,,,-99.99,,2013-03-03 13:34:00,
2013-03-03 07:39:00,38.0,-99.9,0.00,WSW,240,10.0,11.0,-999,0.00,,,-99.99,,2013-03-03 13:39:00,
2013-03-03 07:45:00,38.0,-99.9,0.00,SW,235,10.0,11.0,-999,0.00,,,-99.99,,2013-03-03 13:45:00,
2013-03-03 07:54:00,40.0,-99.9,0.00,WSW,237,10.0,10.0,-999,0.00,,,-99.99,,2013-03-03 13:54:00,
2013-03-03 07:59:00,41.0,-99.9,0.00,SW,234,9.0,10.0,-999,0.00,,,-99.99,,2013-03-03 13:59:00,
2013-03-03 08:04:00,42.0,-99.9,0.00,SW,233,8.0,9.0,-999,0.00,,,-99.99,,2013-03-03 14:04:00,
2013-03-03 08:09:00,42.0,-99.9,0.00,WSW,238,8.0,9.0,-999,0.00,,,-99.99,,2013-03-03 14:09:00,
2013-03-03 08:14:00,41.0,-99.9,0.00,WSW,240,7.0,8.0,-999,0.00,,,-99.99,,2013-03-03 14:14:00,
2013-03-03 08:19:00,41.0,-99.9,0.00,West,269,6.0,6.0,-999,0.00,,,-99.99,,2013-03-03 14:19:00,
2013-03-03 08:24:00,41.0,-99.9,0.00,West,264,5.0,6.0,-999,0.00,,,-99.99,,2013-03-03 14:24:00,
2013-03-03 08:29:00,41.0,-99.9,0.00,North,0,0.0,0.0,-999,0.00,,,-99.99,,2013-03-03 14:29:00,
2013-03-03 08:34:00,42.0,-99.9,0.00,North,0,0.0,0.0,-999,0.00,,,-99.99,,2013-03-03 14:34:00,
2013-03-03 08:39:00,42.0,-99.9,0.00,North,0,0.0,0.0,-999,0.00,,,-99.99,,2013-03-03 14:39:00,
2013-03-03 08:44:00,42.0,-99.9,0.00,North,0,0.0,0.0,-999,0.00,,,-99.99,,2013-03-03 14:44:00,
2013-03-03 08:49:00,42.0,-99.9,0.00,North,0,0.0,0.0,-999,0.00,,,-99.99,,2013-03-03 14:49:00,
2013-03-03 08:54:00,42.0,-99.9,0.00,North,0,0.0,0.0,-999,0.00,,,-99.99,,2013-03-03 14:54:00,
2013-03-03 08:59:00,43.0,-99.9,0.00,North,0,0.0,0.0,-999,0.00,,,-99.99,,2013-03-03 14:59:00,
2013-03-03 09:04:00,43.0,-99.9,0.00,North,0,0.0,0.0,-999,0.00,,,-99.99,,2013-03-03 15:04:00,
2013-03-03 09:09:00,42.0,-99.9,0.00,North,0,0.0,0.0,-999,0.00,,,-99.99,,2013-03-03 15:09:00,
2013-03-03 09:19:00,43.0,-99.9,0.00,North,0,0.0,0.0,-999,0.00,,,-99.99,,2013-03-03 15:19:00,
2013-03-03 09:24:00,43.0,-99.9,0.00,North,0,0.0,0.0,-999,0.00,,,-99.99,,2013-03-03 15:24:00,
2013-03-03 09:29:00,44.0,-99.9,0.00,North,0,0.0,0.0,-999,0.00,,,-99.99,,2013-03-03 15:29:00,
2013-03-03 09:34:00,45.0,-99.9,0.00,North,0,0.0,0.0,-999,0.00,,,-99.99,,2013-03-03 15:34:00,
2013-03-03 09:39:00,46.0,-99.9,0.00,North,0,0.0,0.0,-999,0.00,,,-99.99,,2013-03-03 15:39:00,
2013-03-03 09:44:00,47.0,-99.9,0.00,North,0,0.0,0.0,-999,0.00,,,-99.99,,2013-03-03 15:44:00,
2013-03-03 09:49:00,47.0,-99.9,0.00,North,0,0.0,0.0,-999,0.00,,,-99.99,,2013-03-03 15:49:00,
2013-03-03 09:54:00,48.0,-99.9,0.00,North,0,0.0,0.0,-999,0.00,,,-99.99,,2013-03-03 15:54:00,
2013-03-03 09:59:00,49.0,-99.9,0.00,North,0,0.0,0.0,-999,0.00,,,-99.99,,2013-03-03 15:59:00,
2013-03-03 10:04:00,50.0,-99.9,0.00,North,0,0.0,0.0,-999,0.00,,,-99.99,,2013-03-03 16:04:00,
2013-03-03 10:09:00,49.0,-99.9,0.00,North,0,0.0,0.0,-999,0.00,,,-99.99,,2013-03-03 16:09:00,
2013-03-03 10:14:00,48.0,-99.9,0.00,North,0,0.0,0.0,-999,0.00,,,-99.99,,2013-03-03 16:14:00,
2013-03-03 10:19:00,49.0,-99.9,0.00,North,0,0.0,0.0,-999,0.00,,,-99.99,,2013-03-03 16:19:00,
2013-03-03 10:24:00,51.0,-99.9,0.00,North,0,0.0,0.0,-999,0.00,,,-99.99,,2013-03-03 16:24:00,
2013-03-03 10:29:00,52.0,-99.9,0.00,North,0,0.0,0.0,-999,0.00,,,-99.99,,2013-03-03 16:29:00,
2013-03-03 10:34:00,54.0,-99.9,0.00,North,0,0.0,0.0,-999,0.00,,,-99.99,,2013-03-03 16:34:00,
2013-03-03 10:39:00,55.0,-99.9,0.00,North,0,0.0,0.0,-999,0.00,,,-99.99,,2013-03-03 16:39:00,
2013-03-03 10:44:00,55.0,-99.9,0.00,North,0,0.0,0.0,-999,0.00,,,-99.99,,2013-03-03 16:44:00,
2013-03-03 10:49:00,54.0,-99.9,0.00,North,0,0.0,0.0,-999,0.00,,,-99.99,,2013-03-03 16:49:00,
2013-03-03 10:54:00,54.0,-99.9,0.00,North,0,0.0,0.0,-999,0.00,,,-99.99,,2013-03-03 16:54:00,
2013-03-03 10:59:00,54.0,-99.9,0.00,North,0,0.0,0.0,-999,0.00,,,-99.99,,2013-03-03 16:59:00,
2013-03-03 11:04:00,54.0,-99.9,0.00,North,0,0.0,0.0,-999,0.00,,,-99.99,,2013-03-03 17:04:00,
2013-03-03 11:09:00,54.0,-99.9,0.00,North,0,0.0,0.0,-999,0.00,,,-99.99,,2013-03-03 17:09:00,
2013-03-03 11:14:00,54.0,-99.9,0.00,North,0,0.0,0.0,-999,0.00,,,-99.99,,2013-03-03 17:14:00,
2013-03-03 11:19:00,55.0,-99.9,0.00,North,0,0.0,0.0,-999,0.00,,,-99.99,,2013-03-03 17:19:00,
2013-03-03 11:24:00,55.0,-99.9,0.00,North,0,0.0,0.0,-999,0.00,,,-99.99,,2013-03-03 17:24:00,
2013-03-03 11:29:00,56.0,-99.9,0.00,North,0,0.0,0.0,-999,0.00,,,-99.99,,2013-03-03 17:29:00,
2013-03-03 11:34:00,56.0,-99.9,0.00,South,176,2.0,6.0,-999,0.00,,,-99.99,,2013-03-03 17:34:00,
2013-03-03 11:39:00,56.0,-99.9,0.00,SSE,165,6.0,7.0,-999,0.00,,,-99.99,,2013-03-03 17:39:00,
2013-03-03 11:44:00,56.0,-99.9,0.00,SSE,162,6.0,7.0,-999,0.00,,,-99.99,,2013-03-03 17:44:00,
2013-03-03 11:49:00,55.0,-99.9,0.00,SE,133,7.0,8.0,-999,0.00,,,-99.99,,2013-03-03 17:49:00,
2013-03-03 11:54:00,56.0,-99.9,0.00,SSE,162,7.0,8.0,-999,0.00,,,-99.99,,2013-03-03 17:54:00,
2013-03-03 11:59:00,56.0,-99.9,0.00,SSE,159,6.0,7.0,-999,0.00,,,-99.99,,2013-03-03 17:59:00,
2013-03-03 12:04:00,56.0,-99.9,0.00,SE,127,6.0,6.0,-999,0.00,,,-99.99,,2013-03-03 18:04:00,
2013-03-03 12:09:00,56.0,-99.9,0.00,SE,133,7.0,7.0,-999,0.00,,,-99.99,,2013-03-03 18:09:00,
2013-03-03 12:14:00,56.0,-99.9,0.00,ESE,116,6.0,7.0,-999,0.00,,,-99.99,,2013-03-03 18:14:00,
2013-03-03 12:19:00,56.0,-99.9,0.00,ESE,111,6.0,7.0,-999,0.00,,,-99.99,,2013-03-03 18:19:00,
2013-03-03 12:24:00,55.0,-99.9,0.00,SE,138,7.0,8.0,-999,0.00,,,-99.99,,2013-03-03 18:24:00,
2013-03-03 12:34:00,55.0,-99.9,0.00,SE,125,8.0,10.0,-999,0.00,,,-99.99,,2013-03-03 18:34:00,
2013-03-03 12:39:00,55.0,-99.9,0.00,SE,127,8.0,10.0,-999,0.00,,,-99.99,,2013-03-03 18:39:00,
2013-03-03 12:44:00,55.0,-99.9,0.00,ESE,121,10.0,11.0,-999,0.00,,,-99.99,,2013-03-03 18:44:00,
2013-03-03 12:49:00,54.0,-99.9,0.00,ESE,118,9.0,11.0,-999,0.00,,,-99.99,,2013-03-03 18:49:00,
2013-03-03 12:54:00,53.0,-99.9,0.00,ESE,114,9.0,11.0,-999,0.00,,,-99.99,,2013-03-03 18:54:00,
2013-03-03 12:59:00,53.0,-99.9,0.00,ESE,110,10.0,11.0,-999,0.00,,,-99.99,,2013-03-03 18:59:00,
2013-03-03 13:04:00,53.0,-99.9,0.00,ESE,118,10.0,12.0,-999,0.00,,,-99.99,,2013-03-03 19:04:00,
2013-03-03 13:09:00,52.0,-99.9,0.00,ESE,117,12.0,14.0,-999,0.00,,,-99.99,,2013-03-03 19:09:00,
2013-03-03 13:14:00,52.0,-99.9,0.00,SE,138,13.0,15.0,-999,0.00,,,-99.99,,2013-03-03 19:14:00,
2013-03-03 13:19:00,52.0,-99.9,0.00,SE,133,13.0,15.0,-999,0.00,,,-99.99,,2013-03-03 19:19:00,
2013-03-03 13:24:00,52.0,-99.9,0.00,SE,134,13.0,15.0,-999,0.00,,,-99.99,,2013-03-03 19:24:00,
2013-03-03 13:29:00,52.0,-99.9,0.00,SE,127,13.0,15.0,-999,0.00,,,-99.99,,2013-03-03 19:29:00,
2013-03-03 13:34:00,52.0,-99.9,0.00,SE,127,14.0,17.0,-999,0.00,,,-99.99,,2013-03-03 19:34:00,
2013-03-03 13:39:00,52.0,-99.9,0.00,ESE,118,13.0,16.0,-999,0.00,,,-99.99,,2013-03-03 19:39:00,
2013-03-03 13:44:00,52.0,-99.9,0.00,SE,124,14.0,16.0,-999,0.00,,,-99.99,,2013-03-03 19:44:00,
2013-03-03 13:50:00,53.0,-99.9,0.00,ESE,123,13.0,17.0,-999,0.00,,,-99.99,,2013-03-03 19:50:00,
2013-03-03 13:59:00,53.0,-99.9,0.00,SE,141,12.0,15.0,-999,0.00,,,-99.99,,2013-03-03 19:59:00,
2013-03-03 14:04:00,53.0,-99.9,0.00,ESE,120,13.0,16.0,-999,0.00,,,-99.99,,2013-03-03 20:04:00,
2013-03-03 14:09:00,53.0,-99.9,0.00,ESE,107,10.0,13.0,-999,0.00,,,-99.99,,2013-03-03 20:09:00,
2013-03-03 14:14:00,54.0,-99.9,0.00,SE,124,8.0,11.0,-999,0.00,,,-99.99,,2013-03-03 20:14:00,
2013-03-03 14:19:00,53.0,-99.9,0.00,ESE,120,8.0,10.0,-999,0.00,,,-99.99,,2013-03-03 20:19:00,
2013-03-03 14:24:00,53.0,-99.9,0.00,SE,144,8.0,10.0,-999,0.00,,,-99.99,,2013-03-03 20:24:00,
2013-03-03 14:29:00,54.0,-99.9,0.00,SE,141,10.0,12.0,-999,0.00,,,-99.99,,2013-03-03 20:29:00,
2013-03-03 14:34:00,53.0,-99.9,0.00,SSE,155,12.0,13.0,-999,0.00,,,-99.99,,2013-03-03 20:34:00,
2013-03-03 14:39:00,54.0,-99.9,0.00,SSE,159,10.0,11.0,-999,0.00,,,-99.99,,2013-03-03 20:39:00,
2013-03-03 14:44:00,53.0,-99.9,0.00,SSE,152,8.0,10.0,-999,0.00,,,-99.99,,2013-03-03 20:44:00,
2013-03-03 14:49:00,53.0,-99.9,0.00,SE,137,9.0,10.0,-999,0.00,,,-99.99,,2013-03-03 20:49:00,
2013-03-03 14:54:00,54.0,-99.9,0.00,SSE,155,9.0,11.0,-999,0.00,,,-99.99,,2013-03-03 20:54:00,
2013-03-03 14:59:00,52.0,-99.9,0.00,SE,137,11.0,12.0,-999,0.00,,,-99.99,,2013-03-03 20:59:00,
2013-03-03 15:04:00,52.0,-99.9,0.00,SE,131,8.0,10.0,-999,0.00,,,-99.99,,2013-03-03 21:04:00,
2013-03-03 15:09:00,52.0,-99.9,0.00,SE,137,9.0,10.0,-999,0.00,,,-99.99,,2013-03-03 21:09:00,
2013-03-03 15:14:00,52.0,-99.9,0.00,ESE,120,8.0,9.0,-999,0.00,,,-99.99,,2013-03-03 21:14:00,
2013-03-03 15:19:00,53.0,-99.9,0.00,ESE,116,10.0,11.0,-999,0.00,,,-99.99,,2013-03-03 21:19:00,
2013-03-03 15:24:00,52.0,-99.9,0.00,SE,127,8.0,9.0,-999,0.00,,,-99.99,,2013-03-03 21:24:00,
2013-03-03 15:29:00,53.0,-99.9,0.00,ESE,117,7.0,8.0,-999,0.00,,,-99.99,,2013-03-03 21:29:00,
2013-03-03 15:35:00,53.0,-99.9,0.00,ESE,113,8.0,8.0,-999,0.00,,,-99.99,,2013-03-03 21:35:00,
2013-03-03 15:44:00,52.0,-99.9,0.00,ESE,117,9.0,10.0,-999,0.00,,,-99.99,,2013-03-03 21:44:00,
2013-03-03 15:49:00,51.0,-99.9,0.00,ESE,109,9.0,10.0,-999,0.00,,,-99.99,,2013-03-03 21:49:00,
2013-03-03 15:54:00,51.0,-99.9,0.00,ESE,111,9.0,10.0,-999,0.00,,,-99.99,,2013-03-03 21:54:00,
2013-03-03 15:59:00,51.0,-99.9,0.00,ESE,111,9.0,10.0,-999,0.00,,,-99.99,,2013-03-03 21:59:00,
2013-03-03 16:04:00,51.0,-99.9,0.00,SE,125,8.0,9.0,-999,0.00,,,-99.99,,2013-03-03 22:04:00,
2013-03-03 16:09:00,51.0,-99.9,0.00,ESE,121,8.0,9.0,-999,0.00,,,-99.99,,2013-03-03 22:09:00,
2013-03-03 16:14:00,52.0,-99.9,0.00,ESE,117,7.0,8.0,-999,0.00,,,-99.99,,2013-03-03 22:14:00,
2013-03-03 16:19:00,51.0,-99.9,0.00,SE,142,8.0,9.0,-999,0.00,,,-99.99,,2013-03-03 22:19:00,
2013-03-03 16:24:00,52.0,-99.9,0.00,SE,127,8.0,9.0,-999,0.00,,,-99.99,,2013-03-03 22:24:00,
2013-03-03 16:29:00,52.0,-99.9,0.00,SE,138,7.0,8.0,-999,0.00,,,-99.99,,2013-03-03 22:29:00,
2013-03-03 16:34:00,52.0,-99.9,0.00,SSE,148,7.0,7.0,-999,0.00,,,-99.99,,2013-03-03 22:34:00,
2013-03-03 16:39:00,52.0,-99.9,0.00,ESE,111,6.0,7.0,-999,0.00,,,-99.99,,2013-03-03 22:39:00,
2013-03-03 16:44:00,52.0,-99.9,0.00,SE,127,6.0,7.0,-999,0.00,,,-99.99,,2013-03-03 22:44:00,
2013-03-03 16:49:00,52.0,-99.9,0.00,ESE,111,7.0,8.0,-999,0.00,,,-99.99,,2013-03-03 22:49:00,
2013-03-03 16:54:00,52.0,-99.9,0.00,ESE,107,8.0,9.0,-999,0.00,,,-99.99,,2013-03-03 22:54:00,
2013-03-03 16:59:00,51.0,-99.9,0.00,ESE,109,9.0,10.0,-999,0.00,,,-99.99,,2013-03-03 22:59:00,
2013-03-03 17:04:00,50.0,-99.9,0.00,ESE,103,11.0,12.0,-999,0.00,,,-99.99,,2013-03-03 23:04:00,
2013-03-03 17:09:00,50.0,-99.9,0.00,East,96,10.0,12.0,-999,0.00,,,-99.99,,2013-03-03 23:09:00,
2013-03-03 17:14:00,49.0,-99.9,0.00,ESE,118,11.0,13.0,-999,0.00,,,-99.99,,2013-03-03 23:14:00,
2013-03-03 17:19:00,49.0,-99.9,0.00,ESE,116,11.0,13.0,-999,0.00,,,-99.99,,2013-03-03 23:19:00,
2013-03-03 17:24:00,49.0,-99.9,0.00,SE,124,9.0,11.0,-999,0.00,,,-99.99,,2013-03-03 23:24:00,
2013-03-03 17:29:00,49.0,-99.9,0.00,SE,131,9.0,11.0,-999,0.00,,,-99.99,,2013-03-03 23:29:00,
2013-03-03 17:34:00,48.0,-99.9,0.00,SE,135,9.0,10.0,-999,0.00,,,-99.99,,2013-03-03 23:34:00,
2013-03-03 17:39:00,48.0,-99.9,0.00,SE,141,8.0,9.0,-999,0.00,,,-99.99,,2013-03-03 23:39:00,
2013-03-03 17:44:00,48.0,-99.9,0.00,SE,141,8.0,9.0,-999,0.00,,,-99.99,,2013-03-03 23:44:00,
2013-03-03 17:49:00,48.0,-99.9,0.00,SE,138,8.0,9.0,-999,0.00,,,-99.99,,2013-03-03 23:49:00,
2013-03-03 17:54:00,48.0,-99.9,0.00,SSE,147,6.0,7.0,-999,0.00,,,-99.99,,2013-03-03 23:54:00,
2013-03-03 17:59:00,48.0,-99.9,0.00,SE,135,9.0,10.0,-999,0.00,,,-99.99,,2013-03-03 23:59:00,
2013-03-03 18:04:00,47.0,-99.9,0.00,SSE,151,8.0,9.0,-999,0.00,,,-99.99,,2013-03-04 00:04:00,
2013-03-03 18:09:00,46.0,-99.9,0.00,SE,145,8.0,9.0,-999,0.00,,,-99.99,,2013-03-04 00:09:00,
2013-03-03 18:14:00,46.0,-99.9,0.00,SSE,149,8.0,10.0,-999,0.00,,,-99.99,,2013-03-04 00:14:00,
2013-03-03 18:19:00,45.0,-99.9,0.00,SSE,148,7.0,8.0,-999,0.00,,,-99.99,,2013-03-04 00:19:00,
2013-03-03 18:24:00,45.0,-99.9,0.00,SSE,152,7.0,8.0,-999,0.00,,,-99.99,,2013-03-04 00:24:00,
2013-03-03 18:29:00,44.0,-99.9,0.00,SSE,152,8.0,9.0,-999,0.00,,,-99.99,,2013-03-04 00:29:00,
2013-03-03 18:34:00,44.0,-99.9,0.00,SSE,155,9.0,9.0,-999,0.00,,,-99.99,,2013-03-04 00:34:00,
2013-03-03 18:39:00,44.0,-99.9,0.00,SSE,152,9.0,10.0,-999,0.00,,,-99.99,,2013-03-04 00:39:00,
2013-03-03 18:44:00,44.0,-99.9,0.00,SE,145,9.0,11.0,-999,0.00,,,-99.99,,2013-03-04 00:44:00,
2013-03-03 18:49:00,43.0,-99.9,0.00,SSE,152,9.0,10.0,-999,0.00,,,-99.99,,2013-03-04 00:49:00,
2013-03-03 18:54:00,43.0,-99.9,0.00,SE,138,9.0,10.0,-999,0.00,,,-99.99,,2013-03-04 00:54:00,
2013-03-03 19:00:00,43.0,-99.9,0.00,SSE,155,8.0,10.0,-999,0.00,,,-99.99,,2013-03-04 01:00:00,
2013-03-03 19:09:00,42.0,-99.9,0.00,SSE,158,9.0,11.0,-999,0.00,,,-99.99,,2013-03-04 01:09:00,
2013-03-03 19:14:00,42.0,-99.9,0.00,SSE,166,8.0,9.0,-999,0.00,,,-99.99,,2013-03-04 01:14:00,
2013-03-03 19:19:00,42.0,-99.9,0.00,SSE,157,9.0,11.0,-999,0.00,,,-99.99,,2013-03-04 01:19:00,
2013-03-03 19:24:00,41.0,-99.9,0.00,SE,134,9.0,10.0,-999,0.00,,,-99.99,,2013-03-04 01:24:00,
2013-03-03 19:30:00,41.0,-99.9,0.00,South,171,8.0,9.0,-999,0.00,,,-99.99,,2013-03-04 01:30:00,
2013-03-03 19:39:00,41.0,-99.9,0.00,SSE,157,10.0,11.0,-999,0.00,,,-99.99,,2013-03-04 01:39:00,
2013-03-03 19:44:00,40.0,-99.9,0.00,South,171,10.0,11.0,-999,0.00,,,-99.99,,2013-03-04 01:44:00,
2013-03-03 19:49:00,39.0,-99.9,0.00,South,175,10.0,11.0,-999,0.00,,,-99.99,,2013-03-04 01:49:00,
2013-03-03 19:54:00,39.0,-99.9,0.00,SSE,165,9.0,10.0,-999,0.00,,,-99.99,,2013-03-04 01:54:00,
2013-03-03 19:59:00,40.0,-99.9,0.00,South,169,9.0,10.0,-999,0.00,,,-99.99,,2013-03-04 01:59:00,
2013-03-03 20:04:00,39.0,-99.9,0.00,SSE,164,9.0,10.0,-999,0.00,,,-99.99,,2013-03-04 02:04:00,
2013-03-03 20:09:00,39.0,-99.9,0.00,SSE,159,8.0,10.0,-999,0.00,,,-99.99,,2013-03-04 02:09:00,
2013-03-03 20:19:00,39.0,-99.9,0.00,SSE,165,9.0,10.0,-999,0.00,,,-99.99,,2013-03-04 02:19:00,
2013-03-03 20:24:00,39.0,-99.9,0.00,South,178,9.0,11.0,-999,0.00,,,-99.99,,2013-03-04 02:24:00,
2013-03-03 20:30:00,39.0,-99.9,0.00,SSE,164,9.0,10.0,-999,0.00,,,-99.99,,2013-03-04 02:30:00,
2013-03-03 20:39:00,39.0,-99.9,0.00,South,179,9.0,10.0,-999,0.00,,,-99.99,,2013-03-04 02:39:00,
2013-03-03 20:44:00,39.0,-99.9,0.00,South,183,9.0,11.0,-999,0.00,,,-99.99,,2013-03-04 02:44:00,
2013-03-03 20:49:00,39.0,-99.9,0.00,South,172,10.0,11.0,-999,0.00,,,-99.99,,2013-03-04 02:49:00,
2013-03-03 20:54:00,39.0,-99.9,0.00,South,185,10.0,12.0,-999,0.00,,,-99.99,,2013-03-04 02:54:00,
2013-03-03 20:59:00,40.0,-99.9,0.00,South,188,10.0,11.0,-999,0.00,,,-99.99,,2013-03-04 02:59:00,
2013-03-03 21:04:00,40.0,-99.9,0.00,South,182,9.0,10.0,-999,0.00,,,-99.99,,2013-03-04 03:04:00,
2013-03-03 21:09:00,40.0,-99.9,0.00,SSW,192,8.0,9.0,-999,0.00,,,-99.99,,2013-03-04 03:09:00,
2013-03-03 21:19:00,40.0,-99.9,0.00,South,175,9.0,10.0,-999,0.00,,,-99.99,,2013-03-04 03:19:00,
2013-03-03 21:24:00,40.0,-99.9,0.00,SSW,192,8.0,9.0,-999,0.00,,,-99.99,,2013-03-04 03:24:00,
2013-03-03 21:29:00,39.0,-99.9,0.00,South,175,8.0,9.0,-999,0.00,,,-99.99,,2013-03-04 03:29:00,
2013-03-03 21:34:00,40.0,-99.9,0.00,South,189,9.0,10.0,-999,0.00,,,-99.99,,2013-03-04 03:34:00,
2013-03-03 21:39:00,39.0,-99.9,0.00,South,185,9.0,10.0,-999,0.00,,,-99.99,,2013-03-04 03:39:00,
2013-03-03 21:44:00,39.0,-99.9,0.00,SSW,204,8.0,10.0,-999,0.00,,,-99.99,,2013-03-04 03:44:00,
2013-03-03 21:49:00,40.0,-99.9,0.00,SSW,195,10.0,11.0,-999,0.00,,,-99.99,,2013-03-04 03:49:00,
2013-03-03 21:54:00,40.0,-99.9,0.00,SSW,203,10.0,11.0,-999,0.00,,,-99.99,,2013-03-04 03:54:00,
2013-03-03 21:59:00,39.0,-99.9,0.00,SSW,202,9.0,10.0,-999,0.00,,,-99.99,,2013-03-04 03:59:00,
2013-03-03 22:04:00,39.0,-99.9,0.00,SSW,199,10.0,11.0,-999,0.00,,,-99.99,,2013-03-04 04:04:00,
2013-03-03 22:09:00,40.0,-99.9,0.00,SSW,210,9.0,10.0,-999,0.00,,,-99.99,,2013-03-04 04:09:00,
2013-03-03 22:14:00,40.0,-99.9,0.00,SSW,202,9.0,10.0,-999,0.00,,,-99.99,,2013-03-04 04:14:00,
2013-03-03 22:20:00,40.0,-99.9,0.00,SW,226,11.0,12.0,-999,0.00,,,-99.99,,2013-03-04 04:20:00,
2013-03-03 22:29:00,39.0,-99.9,0.00,SW,219,11.0,12.0,-999,0.00,,,-99.99,,2013-03-04 04:29:00,
2013-03-03 22:34:00,39.0,-99.9,0.00,SW,216,9.0,11.0,-999,0.00,,,-99.99,,2013-03-04 04:34:00,
2013-03-03 22:39:00,39.0,-99.9,0.00,SW,227,6.0,7.0,-999,0.00,,,-99.99,,2013-03-04 04:39:00,
2013-03-03 22:44:00,40.0,-99.9,0.00,WSW,237,7.0,8.0,-999,0.00,,,-99.99,,2013-03-04 04:44:00,
2013-03-03 22:49:00,40.0,-99.9,0.00,SW,228,11.0,12.0,-999,0.00,,,-99.99,,2013-03-04 04:49:00,
2013-03-03 22:54:00,40.0,-99.9,0.00,SW,227,11.0,12.0,-999,0.00,,,-99.99,,2013-03-04 04:54:00,
2013-03-03 22:59:00,41.0,-99.9,0.00,SW,234,11.0,11.0,-999,0.00,,,-99.99,,2013-03-04 04:59:00,
2013-03-03 23:04:00,41.0,-99.9,0.00,WSW,238,10.0,12.0,-999,0.00,,,-99.99,,2013-03-04 05:04:00,
2013-03-03 23:09:00,40.0,-99.9,0.00,SW,231,9.0,10.0,-999,0.00,,,-99.99,,2013-03-04 05:09:00,
2013-03-03 23:14:00,40.0,-99.9,0.00,SSE,159,1.0,4.0,-999,0.00,,,-99.99,,2013-03-04 05:14:00,
2013-03-03 23:19:00,40.0,-99.9,0.00,WSW,240,5.0,7.0,-999,0.00,,,-99.99,,2013-03-04 05:19:00,
2013-03-03 23:24:00,40.0,-99.9,0.00,WSW,251,8.0,9.0,-999,0.00,,,-99.99,,2013-03-04 05:24:00,
2013-03-03 23:30:00,40.0,-99.9,0.00,WSW,244,9.0,10.0,-999,0.00,,,-99.99,,2013-03-04 05:30:00,
2013-03-03 23:34:00,39.0,-99.9,0.00,West,265,8.0,9.0,-999,0.00,,,-99.99,,2013-03-04 05:34:00,
2013-03-03 23:39:00,39.0,-99.9,0.00,West,266,7.0,8.0,-999,0.00,,,-99.99,,2013-03-04 05:39:00,
2013-03-03 23:44:00,40.0,-99.9,0.00,WSW,251,7.0,8.0,-999,0.00,,,-99.99,,2013-03-04 05:44:00,
2013-03-03 23:49:00,41.0,-99.9,0.00,West,276,7.0,8.0,-999,0.00,,,-99.99,,2013-03-04 05:49:00,
2013-03-03 23:54:00,41.0,-99.9,0.00,WSW,255,6.0,7.0,-999,0.00,,,-99.99,,2013-03-04 05:54:00,
2013-03-03 23:59:00,41.0,-99.9,0.00,WSW,251,6.0,6.0,-999,0.00,,,-99.99,,2013-03-04 05:59:00,